Time,TemperatureF,DewpointF,PressureIn,WindDirection,WindDirectionDegrees,WindSpeedMPH,WindSpeedGustMPH,Humidity,HourlyPrecipIn,Conditions,Clouds,dailyrainin,SolarRadiationWatts/m^2,SoftwareType,DateUTC
2013-06-28 00:22:00,77.0,58.0,-100.00,SW,223,0.0,7.0,52,0.00,,,0.00,0.000000,,2013-06-28 07:22:00,
2013-06-28 00:33:00,77.0,58.0,-100.00,SW,223,0.0,7.0,52,0.00,,,0.00,0.000000,,2013-06-28 07:33:00,
2013-06-28 00:42:00,77.0,58.0,-100.00,SW,223,0.0,7.0,52,0.00,,,0.00,0.000000,,2013-06-28 07:42:00,
2013-06-28 00:52:00,77.0,58.0,-100.00,SW,223,0.0,7.0,52,0.00,,,0.00,0.000000,,2013-06-28 07:52:00,
2013-06-28 01:21:00,79.0,58.0,-100.00,NNE,15,4.0,7.0,49,0.00,,,-99.99,0.000000,,2013-06-28 08:21:00,
2013-06-28 01:33:00,79.0,58.0,-100.00,NNE,15,4.0,7.0,49,0.00,,,-99.99,0.000000,,2013-06-28 08:33:00,
2013-06-28 01:43:00,79.0,58.0,-100.00,NNE,15,4.0,7.0,49,0.00,,,-99.99,0.000000,,2013-06-28 08:43:00,
2013-06-28 01:52:00,79.0,58.0,-100.00,NNE,15,4.0,7.0,49,0.00,,,-99.99,0.000000,,2013-06-28 08:52:00,
2013-06-28 02:33:00,78.0,58.0,-100.00,NNE,18,7.0,10.0,50,0.00,,,0.00,0.000000,,2013-06-28 09:33:00,
2013-06-28 02:42:00,78.0,58.0,-100.00,NNE,18,7.0,10.0,50,0.00,,,0.00,0.000000,,2013-06-28 09:42:00,
2013-06-28 02:52:00,78.0,58.0,-100.00,NNE,18,7.0,10.0,50,0.00,,,0.00,0.000000,,2013-06-28 09:52:00,
2013-06-28 03:22:00,76.0,54.0,-100.00,NNE,17,5.0,7.0,47,0.00,,,-99.99,0.000000,,2013-06-28 10:22:00,
2013-06-28 03:33:00,76.0,54.0,-100.00,NNE,17,5.0,7.0,47,0.00,,,-99.99,0.000000,,2013-06-28 10:33:00,
2013-06-28 03:42:00,76.0,54.0,-100.00,NNE,17,5.0,7.0,47,0.00,,,-99.99,0.000000,,2013-06-28 10:42:00,
2013-06-28 03:52:00,76.0,54.0,-100.00,NNE,17,5.0,7.0,47,0.00,,,-99.99,0.000000,,2013-06-28 10:52:00,
2013-06-28 04:22:00,73.0,53.0,-100.00,North,354,5.0,12.0,49,0.00,,,0.00,0.000000,,2013-06-28 11:22:00,
2013-06-28 04:34:00,73.0,53.0,-100.00,North,354,5.0,12.0,49,0.00,,,0.00,0.000000,,2013-06-28 11:34:00,
2013-06-28 04:43:00,73.0,53.0,-100.00,North,354,5.0,12.0,49,0.00,,,0.00,0.000000,,2013-06-28 11:43:00,
2013-06-28 04:53:00,73.0,53.0,-100.00,North,354,5.0,12.0,49,0.00,,,0.00,0.000000,,2013-06-28 11:53:00,
2013-06-28 05:22:00,73.0,50.0,-100.00,NNE,17,6.0,13.0,45,0.00,,,0.00,0.000000,,2013-06-28 12:22:00,
2013-06-28 05:33:00,73.0,50.0,-100.00,NNE,17,6.0,13.0,45,0.00,,,0.00,0.000000,,2013-06-28 12:33:00,
2013-06-28 05:43:00,73.0,50.0,-100.00,NNE,17,6.0,13.0,45,0.00,,,0.00,0.000000,,2013-06-28 12:43:00,
2013-06-28 05:52:00,73.0,50.0,-100.00,NNE,17,6.0,13.0,45,0.00,,,0.00,0.000000,,2013-06-28 12:52:00,
2013-06-28 06:43:00,72.0,49.0,-100.00,North,11,8.0,13.0,44,0.00,,,0.00,1.000000,,2013-06-28 13:43:00,
2013-06-28 06:53:00,72.0,49.0,-100.00,North,11,8.0,13.0,44,0.00,,,0.00,1.000000,,2013-06-28 13:53:00,
2013-06-28 07:22:00,73.0,50.0,-100.00,North,8,9.0,13.0,44,0.00,,,0.00,16.000000,,2013-06-28 14:22:00,
2013-06-28 07:33:00,73.0,50.0,-100.00,North,8,9.0,13.0,44,0.00,,,0.00,16.000000,,2013-06-28 14:33:00,
2013-06-28 07:44:00,73.0,50.0,-100.00,North,8,9.0,13.0,44,0.00,,,0.00,16.000000,,2013-06-28 14:44:00,
2013-06-28 07:53:00,73.0,50.0,-100.00,North,8,9.0,13.0,44,0.00,,,0.00,16.000000,,2013-06-28 14:53:00,
2013-06-28 08:24:00,81.0,51.0,-100.00,ESE,123,0.0,10.0,35,0.00,,,0.00,225.000000,,2013-06-28 15:24:00,
2013-06-28 08:33:00,81.0,51.0,-100.00,ESE,123,0.0,10.0,35,0.00,,,0.00,225.000000,,2013-06-28 15:33:00,
2013-06-28 08:43:00,81.0,51.0,-100.00,ESE,123,0.0,10.0,35,0.00,,,0.00,225.000000,,2013-06-28 15:43:00,
2013-06-28 08:52:00,81.0,51.0,-100.00,ESE,123,0.0,10.0,35,0.00,,,0.00,225.000000,,2013-06-28 15:52:00,
2013-06-28 09:53:00,85.0,50.0,-100.00,SSW,193,2.0,5.0,30,0.00,,,0.00,503.000000,,2013-06-28 16:53:00,
2013-06-28 10:22:00,88.0,54.0,-100.00,South,178,8.0,12.0,31,0.00,,,0.00,709.000000,,2013-06-28 17:22:00,
2013-06-28 10:33:00,88.0,54.0,-100.00,South,178,8.0,12.0,31,0.00,,,0.00,709.000000,,2013-06-28 17:33:00,
2013-06-28 10:44:00,88.0,54.0,-100.00,South,178,8.0,12.0,31,0.00,,,0.00,709.000000,,2013-06-28 17:44:00,
2013-06-28 10:52:00,88.0,54.0,-100.00,South,178,8.0,12.0,31,0.00,,,0.00,709.000000,,2013-06-28 17:52:00,
2013-06-28 11:43:00,89.0,57.0,-100.00,South,171,12.0,18.0,34,0.00,,,0.00,878.000000,,2013-06-28 18:43:00,
2013-06-28 11:52:00,89.0,57.0,-100.00,South,171,12.0,18.0,34,0.00,,,0.00,878.000000,,2013-06-28 18:52:00,
2013-06-28 12:22:00,93.0,56.0,-100.00,South,169,16.0,21.0,29,0.00,,,0.00,1000.000000,,2013-06-28 19:22:00,
2013-06-28 12:33:00,93.0,56.0,-100.00,South,169,16.0,21.0,29,0.00,,,0.00,1000.000000,,2013-06-28 19:33:00,
2013-06-28 12:43:00,93.0,56.0,-100.00,South,169,16.0,21.0,29,0.00,,,0.00,1000.000000,,2013-06-28 19:43:00,
2013-06-28 12:53:00,93.0,56.0,-100.00,South,169,16.0,21.0,29,0.00,,,0.00,1000.000000,,2013-06-28 19:53:00,
2013-06-28 13:22:00,96.0,57.0,-100.00,SSE,167,19.0,24.0,27,0.00,,,0.00,1062.000000,,2013-06-28 20:22:00,
2013-06-28 13:33:00,96.0,57.0,-100.00,SSE,167,19.0,24.0,27,0.00,,,0.00,1062.000000,,2013-06-28 20:33:00,
2013-06-28 13:43:00,96.0,57.0,-100.00,SSE,167,19.0,24.0,27,0.00,,,0.00,1062.000000,,2013-06-28 20:43:00,
2013-06-28 13:52:00,96.0,57.0,-100.00,SSE,167,19.0,24.0,27,0.00,,,0.00,1062.000000,,2013-06-28 20:52:00,
2013-06-28 14:34:00,99.0,53.0,-100.00,SSE,162,22.0,28.0,22,0.00,,,0.00,1069.000000,,2013-06-28 21:34:00,
2013-06-28 14:43:00,99.0,53.0,-100.00,SSE,162,22.0,28.0,22,0.00,,,0.00,1069.000000,,2013-06-28 21:43:00,
2013-06-28 14:53:00,99.0,53.0,-100.00,SSE,162,22.0,28.0,22,0.00,,,0.00,1069.000000,,2013-06-28 21:53:00,
2013-06-28 15:22:00,104.0,50.0,-100.00,West,268,7.0,25.0,17,0.00,,,0.00,1013.000000,,2013-06-28 22:22:00,
2013-06-28 15:34:00,104.0,50.0,-100.00,West,268,7.0,25.0,17,0.00,,,0.00,1013.000000,,2013-06-28 22:34:00,
2013-06-28 15:43:00,104.0,50.0,-100.00,West,268,7.0,25.0,17,0.00,,,0.00,1013.000000,,2013-06-28 22:43:00,
2013-06-28 15:52:00,104.0,50.0,-100.00,West,268,7.0,25.0,17,0.00,,,0.00,1013.000000,,2013-06-28 22:52:00,
2013-06-28 16:23:00,102.0,50.0,-100.00,NW,316,24.0,31.0,18,0.00,,,0.00,896.000000,,2013-06-28 23:23:00,
2013-06-28 16:34:00,102.0,50.0,-100.00,NW,316,24.0,31.0,18,0.00,,,0.00,896.000000,,2013-06-28 23:34:00,
2013-06-28 16:43:00,102.0,50.0,-100.00,NW,316,24.0,31.0,18,0.00,,,0.00,896.000000,,2013-06-28 23:43:00,
2013-06-28 16:53:00,102.0,50.0,-100.00,NW,316,24.0,31.0,18,0.00,,,0.00,896.000000,,2013-06-28 23:53:00,
2013-06-28 17:22:00,100.0,50.0,-100.00,NW,308,27.0,34.0,19,0.00,,,0.00,731.000000,,2013-06-29 00:22:00,
2013-06-28 17:33:00,100.0,50.0,-100.00,NW,308,27.0,34.0,19,0.00,,,0.00,731.000000,,2013-06-29 00:33:00,
2013-06-28 17:42:00,100.0,50.0,-100.00,NW,308,27.0,34.0,19,0.00,,,0.00,731.000000,,2013-06-29 00:42:00,
2013-06-28 17:52:00,100.0,50.0,-100.00,NW,308,27.0,34.0,19,0.00,,,0.00,731.000000,,2013-06-29 00:52:00,
2013-06-28 18:22:00,98.0,49.0,-100.00,NW,305,18.0,35.0,19,0.00,,,0.00,526.000000,,2013-06-29 01:22:00,
2013-06-28 18:31:00,98.0,49.0,-100.00,NW,305,18.0,35.0,19,0.00,,,0.00,526.000000,,2013-06-29 01:31:00,
2013-06-28 18:42:00,98.0,49.0,-100.00,NW,305,18.0,35.0,19,0.00,,,0.00,526.000000,,2013-06-29 01:42:00,
2013-06-28 18:51:00,98.0,49.0,-100.00,NW,305,18.0,35.0,19,0.00,,,0.00,526.000000,,2013-06-29 01:51:00,
2013-06-28 19:21:00,96.0,54.0,-100.00,SSE,150,9.0,25.0,25,0.00,,,0.00,310.000000,,2013-06-29 02:21:00,
2013-06-28 19:31:00,96.0,54.0,-100.00,SSE,150,9.0,25.0,25,0.00,,,0.00,310.000000,,2013-06-29 02:31:00,
2013-06-28 19:41:00,96.0,54.0,-100.00,SSE,150,9.0,25.0,25,0.00,,,0.00,310.000000,,2013-06-29 02:41:00,
2013-06-28 19:51:00,96.0,54.0,-100.00,SSE,150,9.0,25.0,25,0.00,,,0.00,310.000000,,2013-06-29 02:51:00,
2013-06-28 20:21:00,91.0,54.0,-100.00,SE,143,9.0,23.0,29,0.00,,,0.00,87.000000,,2013-06-29 03:21:00,
2013-06-28 20:32:00,91.0,54.0,-100.00,SE,143,9.0,23.0,29,0.00,,,0.00,87.000000,,2013-06-29 03:32:00,
2013-06-28 20:41:00,91.0,54.0,-100.00,SE,143,9.0,23.0,29,0.00,,,0.00,87.000000,,2013-06-29 03:41:00,
2013-06-28 20:51:00,91.0,54.0,-100.00,SE,143,9.0,23.0,29,0.00,,,0.00,87.000000,,2013-06-29 03:51:00,
2013-06-28 21:22:00,88.0,54.0,-100.00,SSE,159,15.0,19.0,32,0.00,,,0.00,5.000000,,2013-06-29 04:22:00,
2013-06-28 21:31:00,88.0,54.0,-100.00,SSE,159,15.0,19.0,32,0.00,,,0.00,5.000000,,2013-06-29 04:31:00,
2013-06-28 21:41:00,88.0,54.0,-100.00,SSE,159,15.0,19.0,32,0.00,,,0.00,5.000000,,2013-06-29 04:41:00,
2013-06-28 21:51:00,88.0,54.0,-100.00,SSE,159,15.0,19.0,32,0.00,,,0.00,5.000000,,2013-06-29 04:51:00,
2013-06-28 22:31:00,86.0,55.0,-100.00,SSE,162,15.0,20.0,35,0.00,,,0.00,0.000000,,2013-06-29 05:31:00,
2013-06-28 22:41:00,86.0,55.0,-100.00,SSE,162,15.0,20.0,35,0.00,,,0.00,0.000000,,2013-06-29 05:41:00,
2013-06-28 22:51:00,86.0,55.0,-100.00,SSE,162,15.0,20.0,35,0.00,,,0.00,0.000000,,2013-06-29 05:51:00,
2013-06-28 23:33:00,82.0,55.0,-100.00,South,181,9.0,19.0,39,0.00,,,0.00,0.000000,,2013-06-29 06:33:00,
2013-06-28 23:43:00,82.0,55.0,-100.00,South,181,9.0,19.0,39,0.00,,,0.00,0.000000,,2013-06-29 06:43:00,
2013-06-28 23:53:00,82.0,55.0,-100.00,South,181,9.0,19.0,39,0.00,,,0.00,0.000000,,2013-06-29 06:53:00,